AJISAI (EGS) (16908 NORAD) Tracking and Keplerian Element Data

This shows tracking and keplerian element data for the satellite.

Feedback or suggestion? Click here.




ElementValue
Catalog16908
NameAJISAI (EGS)
Epoch Orbit18110
Epoch Day318.86779704
Epoch Year2019
RAAN346.5827
Inclination50.011
Eccentricity0.0011404
Argument of Perigee175.5019
Mean Anonmoly239.7825
Mean Motion12.44490677
Decay Rate-8.5E-07
L11 16908U 86061A 19318.86779704 -.00000085 00000-0 84656-4 0 9992
L22 16908 50.0110 346.5827 0011404 175.5019 239.7825 12.44490677181107

Live tracking and technical data element details for AJISAI (EGS) (NORAD 16908). AJISAI (EGS) can be tracked NOW for your location showing map with azimuth and elevation plus other details from your city location.

Track the satellite on the map from your city or location and see movement details for azimuth, elevation, latitude, longitude, range, height, and movement on the map or in text.







IsCatalogInMostPopularTable: catalog: 16908, numindb: 382
Update: records affected: 1



GetName: 16908 AJISAI (EGS)

Hit Count: updated at: Sun, 17 Nov 2019 16:08:32 GMT